QPF
0.02 0.00 0.00 0.00 0.01 0.00 0.00 0.01 0.01 0.01 0.01 0.00 0.00 0.01 0.01 0.02 0.01 0.00 0.00 0.00 0.00 0.00 0.00 0.00 0.00 0.00 0.00 0.00 0.00 0.00 0.00 0.00 0.00 0.01 0.01 0.01 0.02 0.02 0.04 0.04 0.04 0.04 0.03 0.01 0.01 0.00 0.00 0.00 0.00 0.00 0.00 0.00 0.00 0.00
0.04 0.02 0.01 0.00 0.00 0.00 0.00 0.01 0.03 0.02 0.01 0.01 0.00 0.00 0.00 0.00 0.01 0.00 0.00 0.00 0.00 0.00 0.00 0.00 0.00 0.00 0.00 0.00 0.00 0.00 0.00 0.00 0.00 0.01 0.01 0.01 0.02 0.01 0.01 0.05 0.05 0.03 0.03 0.03 0.01 0.01 0.00 0.00 0.00 0.00 0.00 0.00 0.00 0.00
0.03 0.03 0.01 0.00 0.00 0.00 0.01 0.02 0.03 0.02 0.02 0.01 0.00 0.00 0.01 0.01 0.02 0.01 0.01 0.00 0.01 0.01 0.00 0.00 0.00 0.00 0.00 0.00 0.00 0.00 0.00 0.00 0.01 0.01 0.01 0.01 0.02 0.01 0.02 0.03 0.03 0.02 0.00 0.00 0.01 0.00 0.00 0.00 0.00 0.00 0.00 0.00 0.00 0.00
0.02 0.02 0.02 0.00 0.00 0.00 0.01 0.01 0.02 0.02 0.01 0.00 0.00 0.00 0.00 0.01 0.04 0.05 0.01 0.00 0.00 0.00 0.00 0.00 0.00 0.00 0.00 0.00 0.00 0.00 0.00 0.00 0.01 0.01 0.01 0.01 0.01 0.01 0.01 0.01 0.01 0.00 0.00 0.00 0.00 0.00 0.00 0.00 0.00 0.00 0.00 0.00 0.00 0.00
0.02 0.01 0.01 0.00 0.00 0.00 0.00 0.00 0.01 0.01 0.01 0.00 0.00 0.00 0.00 0.00 0.01 0.05 0.03 0.00 0.00 0.00 0.00 0.00 0.00 0.00 0.00 0.00 0.00 0.00 0.00 0.00 0.00 0.00 0.01 0.01 0.00 0.02 0.01 0.01 0.01 0.00 0.00 0.00 0.00 0.00 0.00 0.00 0.00 0.00 0.00 0.00 0.00 0.00
0.02 0.01 0.02 0.01 0.00 0.00 0.00 0.01 0.01 0.00 0.00 0.00 0.00 0.00 0.01 0.01 0.02 0.04 0.02 0.00 0.00 0.00 0.01 0.00 0.00 0.00 0.00 0.00 0.00 0.00 0.00 0.00 0.00 0.01 0.01 0.01 0.01 0.01 0.01 0.02 0.00 0.00 0.00 0.00 0.00 0.00 0.00 0.00 0.00 0.00 0.00 0.00 0.00 0.00
0.01 0.01 0.01 0.01 0.00 0.00 0.01 0.02 0.01 0.00 0.00 0.00 0.00 0.00 0.01 0.02 0.04 0.00 0.00 0.00 0.00 0.00 0.00 0.00 0.00 0.00 0.00 0.00 0.00 0.00 0.00 0.00 0.00 0.01 0.01 0.00 0.00 0.01 0.02 0.01 0.00 0.00 0.00 0.00 0.00 0.00 0.00 0.00 0.00 0.00 0.00 0.00 0.00 0.00
0.02 0.00 0.00 0.01 0.01 0.01 0.01 0.01 0.00 0.00 0.00 0.00 0.00 0.01 0.01 0.01 0.00 0.00 0.00 0.01 0.00 0.00 0.00 0.00 0.00 0.00 0.00 0.01 0.01 0.00 0.00 0.00 0.01 0.01 0.01 0.00 0.00 0.02 0.01 0.00 0.00 0.00 0.00 0.00 0.00 0.00 0.00 0.00 0.00 0.00 0.00 0.00 0.00 0.00
0.01 0.01 0.01 0.02 0.02 0.02 0.01 0.00 0.00 0.00 0.00 0.01 0.01 0.00 0.00 0.00 0.00 0.01 0.01 0.00 0.00 0.00 0.00 0.00 0.00 0.00 0.00 0.02 0.02 0.01 0.01 0.01 0.01 0.01 0.00 0.00 0.00 0.00 0.00 0.00 0.00 0.00 0.00 0.00 0.00 0.00 0.00 0.00 0.00 0.00 0.00 0.00 0.00 0.00
0.00 0.01 0.02 0.03 0.02 0.02 0.01 0.00 0.00 0.01 0.01 0.01 0.00 0.00 0.00 0.00 0.01 0.01 0.00 0.00 0.00 0.00 0.00 0.00 0.00 0.00 0.00 0.00 0.00 0.01 0.01 0.01 0.01 0.00 0.01 0.01 0.00 0.00 0.00 0.00 0.00 0.00 0.00 0.00 0.00 0.00 0.00 0.00 0.00 0.00 0.00 0.00 0.00 0.00
0.01 0.01 0.01 0.01 0.01 0.01 0.00 0.00 0.00 0.01 0.02 0.00 0.00 0.00 0.01 0.01 0.00 0.00 0.00 0.00 0.00 0.00 0.00 0.00 0.00 0.00 0.00 0.01 0.02 0.01 0.00 0.00 0.00 0.00 0.00 0.00 0.00 0.00 0.00 0.00 0.00 0.00 0.00 0.00 0.00 0.00 0.00 0.00 0.00 0.00 0.00 0.00 0.00 0.00
0.01 0.01 0.01 0.00 0.00 0.00 0.00 0.00 0.01 0.01 0.00 0.00 0.00 0.00 0.01 0.00 0.00 0.00 0.00 0.00 0.00 0.00 0.00 0.00 0.00 0.00 0.00 0.00 0.01 0.01 0.01 0.00 0.00 0.00 0.01 0.00 0.00 0.00 0.00 0.00 0.00 0.00 0.00 0.00 0.00 0.00 0.00 0.00 0.00 0.00 0.00 0.00 0.00 0.00
0.00 0.00 0.00 0.00 0.00 0.00 0.00 0.01 0.02 0.00 0.00 0.00 0.00 0.00 0.00 0.00 0.00 0.00 0.00 0.00 0.00 0.00 0.00 0.00 0.00 0.00 0.01 0.00 0.00 0.00 0.01 0.01 0.00 0.01 0.00 0.00 0.00 0.00 0.00 0.00 0.00 0.00 0.00 0.00 0.00 0.00 0.00 0.00 0.00 0.00 0.00 0.00 0.00 0.00
0.00 0.00 0.00 0.00 0.00 0.01 0.01 0.02 0.01 0.00 0.00 0.00 0.00 0.00 0.00 0.00 0.00 0.00 0.00 0.00 0.00 0.00 0.00 0.00 0.00 0.00 0.00 0.00 0.00 0.00 0.00 0.00 0.00 0.00 0.00 0.00 0.00 0.00 0.00 0.00 0.00 0.00 0.00 0.00 0.00 0.00 0.00 0.00 0.00 0.00 0.00 0.00 0.00 0.00
0.00 0.00 0.01 0.01 0.01 0.01 0.01 0.01 0.00 0.00 0.00 0.00 0.00 0.00 0.00 0.00 0.00 0.00 0.00 0.00 0.00 0.00 0.00 0.00 0.00 0.00 0.00 0.00 0.00 0.00 0.00 0.00 0.00 0.00 0.00 0.00 0.00 0.00 0.00 0.00 0.00 0.00 0.00 0.00 0.00 0.00 0.00 0.00 0.00 0.00 0.00 0.00 0.00 0.00
0.01 0.01 0.01 0.00 0.01 0.01 0.01 0.00 0.00 0.00 0.00 0.00 0.00 0.00 0.00 0.00 0.00 0.00 0.00 0.00 0.00 0.00 0.00 0.00 0.00 0.00 0.00 0.00 0.00 0.00 0.00 0.00 0.00 0.00 0.00 0.00 0.00 0.00 0.00 0.00 0.00 0.00 0.00 0.00 0.00 0.00 0.00 0.00 0.00 0.00 0.00 0.00 0.00 0.00
0.02 0.01 0.00 0.00 0.00 0.00 0.00 0.00 0.00 0.00 0.00 0.00 0.00 0.00 0.00 0.00 0.00 0.00 0.00 0.00 0.00 0.00 0.00 0.00 0.00 0.00 0.00 0.00 0.00 0.00 0.00 0.00 0.00 0.00 0.00 0.00 0.00 0.00 0.00 0.00 0.00 0.00 0.00 0.00 0.00 0.00 0.00 0.00 0.00 0.00 0.00 0.00 0.00 0.00
0.01 0.00 0.00 0.00 0.00 0.00 0.00 0.00 0.00 0.00 0.00 0.00 0.00 0.00 0.00 0.00 0.00 0.00 0.00 0.00 0.00 0.00 0.00 0.00 0.00 0.00 0.00 0.00 0.00 0.00 0.00 0.00 0.00 0.00 0.00 0.00 0.00 0.00 0.00 0.00 0.00 0.00 0.00 0.00 0.00 0.00 0.00 0.00 0.00 0.00 0.00 0.00 0.00 0.00
0.00 0.00 0.00 0.00 0.00 0.00 0.00 0.00 0.00 0.00 0.00 0.00 0.00 0.00 0.00 0.00 0.00 0.00 0.00 0.00 0.00 0.00 0.00 0.00 0.00 0.00 0.00 0.00 0.00 0.00 0.00 0.00 0.00 0.00 0.00 0.00 0.00 0.00 0.00 0.00 0.00 0.00 0.00 0.00 0.00 0.00 0.00 0.00 0.00 0.00 0.00 0.00 0.00 0.00
0.00 0.00 0.00 0.00 0.00 0.00 0.00 0.00 0.00 0.00 0.00 0.00 0.00 0.00 0.00 0.00 0.00 0.00 0.00 0.00 0.00 0.00 0.00 0.00 0.00 0.00 0.00 0.00 0.00 0.00 0.00 0.00 0.00 0.00 0.00 0.00 0.00 0.00 0.00 0.00 0.00 0.00 0.00 0.00 0.00 0.00 0.00 0.00 0.00 0.00 0.00 0.00 0.00 0.00
0.00 0.00 0.00 0.00 0.00 0.00 0.00 0.00 0.00 0.00 0.00 0.00 0.00 0.00 0.00 0.00 0.00 0.00 0.00 0.00 0.00 0.00 0.00 0.00 0.00 0.00 0.00 0.00 0.00 0.00 0.00 0.00 0.00 0.00 0.00 0.00 0.00 0.00 0.00 0.00 0.00 0.00 0.00 0.00 0.00 0.00 0.00 0.00 0.00 0.00 0.00 0.00 0.00 0.00
0.00 0.00 0.00 0.00 0.00 0.00 0.00 0.00 0.00 0.00 0.00 0.00 0.00 0.00 0.00 0.00 0.00 0.00 0.00 0.00 0.00 0.00 0.00 0.00 0.00 0.00 0.00 0.00 0.00 0.00 0.00 0.00 0.00 0.00 0.00 0.00 0.00 0.00 0.00 0.00 0.00 0.00 0.00 0.00 0.00 0.00 0.00 0.00 0.00 0.00 0.00 0.00 0.00 0.00
0.00 0.00 0.00 0.00 0.00 0.00 0.00 0.00 0.00 0.00 0.00 0.00 0.00 0.00 0.00 0.00 0.00 0.00 0.00 0.00 0.00 0.00 0.00 0.00 0.00 0.00 0.00 0.00 0.00 0.00 0.00 0.00 0.00 0.00 0.00 0.00 0.00 0.00 0.00 0.00 0.00 0.00 0.00 0.00 0.00 0.00 0.00 0.00 0.00 0.00 0.00 0.00 0.00 0.00
0.00 0.00 0.00 0.00 0.00 0.00 0.00 0.00 0.00 0.00 0.00 0.00 0.00 0.00 0.00 0.00 0.00 0.00 0.00 0.00 0.00 0.00 0.00 0.00 0.00 0.00 0.00 0.00 0.00 0.00 0.00 0.00 0.00 0.00 0.00 0.00 0.00 0.00 0.00 0.00 0.00 0.00 0.00 0.00 0.00 0.00 0.00 0.00 0.00 0.00 0.00 0.00 0.00 0.00
0.00 0.00 0.00 0.00 0.00 0.00 0.00 0.00 0.00 0.00 0.00 0.00 0.00 0.00 0.00 0.00 0.00 0.00 0.00 0.00 0.00 0.00 0.00 0.00 0.00 0.00 0.00 0.00 0.00 0.00 0.00 0.00 0.00 0.00 0.00 0.00 0.00 0.00 0.00 0.00 0.00 0.00 0.00 0.00 0.00 0.00 0.00 0.00 0.00 0.00 0.00 0.00 0.00 0.00
0.00 0.00 0.00 0.00 0.00 0.00 0.00 0.00 0.00 0.00 0.00 0.00 0.00 0.00 0.00 0.00 0.00 0.00 0.00 0.00 0.00 0.00 0.00 0.00 0.00 0.00 0.00 0.00 0.00 0.00 0.00 0.00 0.00 0.00 0.00 0.00 0.00 0.00 0.00 0.00 0.00 0.00 0.00 0.00 0.00 0.00 0.00 0.00 0.00 0.00 0.00 0.00 0.00 0.00
0.00 0.00 0.00 0.00 0.00 0.00 0.00 0.00 0.00 0.00 0.00 0.00 0.00 0.00 0.00 0.00 0.00 0.00 0.00 0.00 0.00 0.00 0.00 0.00 0.00 0.00 0.00 0.00 0.00 0.00 0.00 0.00 0.00 0.00 0.00 0.00 0.00 0.00 0.00 0.00 0.00 0.00 0.00 0.00 0.00 0.00 0.00 0.00 0.00 0.00 0.00 0.00 0.00 0.00
0.00 0.00 0.00 0.00 0.00 0.00 0.00 0.00 0.00 0.00 0.00 0.00 0.00 0.00 0.00 0.00 0.00 0.00 0.00 0.00 0.00 0.00 0.00 0.00 0.00 0.00 0.00 0.00 0.00 0.00 0.00 0.00 0.00 0.00 0.00 0.00 0.00 0.00 0.00 0.00 0.00 0.00 0.00 0.00 0.00 0.00 0.00 0.00 0.00 0.00 0.00 0.00 0.00 0.00
0.00 0.00 0.00 0.00 0.00 0.00 0.00 0.00 0.00 0.00 0.00 0.00 0.00 0.00 0.00 0.00 0.00 0.00 0.00 0.00 0.00 0.00 0.00 0.00 0.00 0.00 0.00 0.00 0.00 0.00 0.00 0.00 0.00 0.00 0.00 0.00 0.00 0.00 0.00 0.00 0.00 0.00 0.00 0.00 0.00 0.00 0.00 0.00 0.00 0.00 0.00 0.00 0.00 0.00
0.00 0.00 0.00 0.00 0.00 0.00 0.00 0.00 0.00 0.00 0.00 0.00 0.00 0.00 0.00 0.00 0.00 0.00 0.00 0.00 0.00 0.00 0.00 0.00 0.00 0.00 0.00 0.00 0.00 0.00 0.00 0.00 0.00 0.00 0.00 0.00 0.00 0.00 0.00 0.00 0.00 0.00 0.00 0.00 0.00 0.00 0.00 0.00 0.00 0.00 0.00 0.00 0.00 0.00
0.00 0.00 0.00 0.00 0.00 0.00 0.00 0.00 0.00 0.00 0.00 0.00 0.00 0.00 0.00 0.00 0.00 0.00 0.00 0.00 0.00 0.00 0.00 0.00 0.00 0.00 0.00 0.00 0.00 0.00 0.00 0.00 0.00 0.00 0.00 0.00 0.00 0.00 0.00 0.00 0.00 0.00 0.00 0.00 0.00 0.00 0.00 0.00 0.00 0.00 0.00 0.00 0.00 0.00
0.00 0.00 0.00 0.00 0.00 0.00 0.00 0.00 0.00 0.00 0.00 0.00 0.00 0.00 0.00 0.00 0.00 0.00 0.00 0.00 0.00 0.00 0.00 0.00 0.00 0.00 0.00 0.00 0.00 0.00 0.00 0.00 0.00 0.00 0.00 0.00 0.00 0.00 0.00 0.00 0.00 0.00 0.00 0.00 0.00 0.00 0.00 0.00 0.00 0.00 0.00 0.00 0.00 0.00
0.00 0.00 0.00 0.00 0.00 0.00 0.00 0.00 0.00 0.00 0.00 0.00 0.00 0.00 0.00 0.00 0.00 0.00 0.00 0.00 0.00 0.00 0.00 0.00 0.00 0.00 0.00 0.00 0.00 0.00 0.00 0.00 0.00 0.00 0.00 0.00 0.00 0.00 0.00 0.00 0.00 0.00 0.00 0.00 0.00 0.00 0.00 0.00 0.00 0.00 0.00 0.00 0.00 0.00
MSLP
1011.72 1012.53 1012.93 1013.47 1014.03 1014.37 1014.95 1015.30 1015.70 1016.11 1016.56 1016.99 1017.35 1017.67 1017.94 1018.17 1018.56 1018.81 1018.71 1019.24 1018.95 1019.07 1018.42 1018.55 1018.39 1018.08 1017.84 1017.73 1017.11 1016.97 1016.61 1016.20 1015.63 1014.85 1013.89 1012.54 1010.08 1009.17 1008.22 1007.54 1007.51 1007.80 1008.02 1007.90 1007.94 1008.05 1008.16 1008.72 1008.17 1008.92 1010.57 1010.54 1010.80 1011.35
1011.36 1012.05 1012.53 1013.11 1013.73 1014.19 1014.59 1015.05 1015.48 1015.91 1016.37 1016.77 1017.15 1017.48 1017.76 1017.98 1018.35 1018.77 1018.62 1019.25 1019.50 1019.64 1018.60 1018.85 1018.42 1018.13 1017.79 1017.54 1017.65 1017.34 1017.21 1017.18 1016.82 1016.08 1015.09 1013.72 1011.61 1010.26 1009.36 1008.31 1008.37 1008.93 1009.36 1009.07 1008.92 1009.48 1010.34 1011.05 1011.40 1012.16 1012.00 1012.07 1012.47 1012.88
1011.05 1011.47 1012.15 1012.77 1013.44 1013.94 1014.33 1014.79 1015.28 1015.66 1016.11 1016.56 1016.95 1017.28 1017.57 1017.84 1018.22 1018.62 1018.53 1019.16 1019.83 1019.78 1018.66 1018.01 1017.04 1017.01 1017.34 1017.42 1017.61 1017.66 1016.77 1016.85 1017.23 1017.47 1016.57 1014.79 1012.89 1011.81 1010.62 1010.18 1009.71 1010.15 1010.82 1010.62 1010.98 1012.06 1012.46 1013.02 1013.47 1013.80 1013.83 1014.01 1014.42 1014.71
1010.84 1011.20 1011.89 1012.50 1013.06 1013.60 1014.07 1014.57 1015.01 1015.42 1015.86 1016.25 1016.69 1017.04 1017.34 1017.65 1017.92 1018.39 1018.60 1019.08 1019.33 1019.31 1018.28 1016.74 1016.88 1016.77 1016.54 1016.78 1016.98 1017.23 1016.94 1016.88 1017.02 1016.92 1016.45 1015.16 1013.47 1012.68 1012.01 1012.09 1011.91 1012.58 1012.22 1012.69 1013.05 1013.77 1014.08 1014.76 1014.89 1014.88 1015.17 1015.56 1015.80 1016.15
1010.34 1010.82 1011.38 1012.05 1012.65 1013.17 1013.75 1014.23 1014.70 1015.19 1015.64 1015.99 1016.40 1016.77 1017.08 1017.35 1017.62 1017.96 1018.29 1018.36 1018.39 1018.41 1017.67 1016.83 1016.71 1016.17 1016.15 1016.24 1016.48 1016.95 1017.25 1017.21 1016.92 1016.73 1015.96 1014.67 1013.48 1013.16 1012.78 1012.78 1013.48 1014.22 1014.56 1014.37 1014.27 1014.85 1015.06 1016.01 1016.21 1016.24 1016.29 1016.65 1016.92 1017.13
1009.81 1010.44 1011.05 1011.71 1012.34 1012.83 1013.42 1013.92 1014.36 1014.89 1015.42 1015.77 1016.11 1016.44 1016.74 1016.98 1017.31 1017.75 1017.93 1018.02 1017.98 1018.42 1018.54 1017.27 1016.35 1016.03 1015.86 1016.04 1016.18 1016.48 1016.84 1017.00 1017.00 1016.31 1015.47 1014.51 1013.65 1013.74 1013.53 1013.54 1015.27 1015.75 1015.92 1015.60 1015.57 1015.93 1016.33 1017.03 1017.25 1017.36 1017.43 1017.84 1018.12 1018.21
1009.54 1010.16 1010.78 1011.44 1011.98 1012.53 1013.05 1013.54 1013.98 1014.60 1015.08 1015.47 1015.78 1016.11 1016.36 1016.60 1017.02 1017.39 1017.20 1016.70 1017.10 1018.35 1018.45 1017.50 1016.26 1015.72 1015.74 1015.93 1016.07 1016.27 1016.62 1016.46 1016.25 1015.73 1014.84 1014.16 1013.72 1013.98 1014.15 1014.54 1016.18 1016.78 1016.83 1016.69 1016.83 1016.80 1017.16 1017.34 1017.91 1018.27 1018.34 1018.60 1018.79 1018.98
1009.36 1009.97 1010.56 1011.06 1011.59 1012.16 1012.71 1013.22 1013.73 1014.28 1014.77 1015.11 1015.44 1015.72 1015.86 1016.21 1016.64 1016.95 1016.78 1017.03 1017.47 1018.16 1017.97 1016.97 1015.89 1015.59 1015.52 1015.23 1015.45 1015.91 1015.84 1016.02 1015.42 1014.77 1014.50 1014.00 1013.82 1014.11 1014.79 1016.62 1017.28 1017.57 1017.66 1017.61 1017.71 1017.56 1017.77 1018.29 1018.57 1018.74 1018.89 1019.05 1019.27 1019.62
1008.86 1009.50 1010.03 1010.62 1011.18 1011.74 1012.33 1012.92 1013.51 1013.95 1014.44 1014.75 1015.12 1015.40 1015.88 1016.15 1016.29 1016.26 1016.69 1017.23 1017.48 1017.42 1016.57 1016.30 1015.23 1014.68 1015.52 1015.05 1015.28 1015.72 1015.55 1015.28 1014.65 1014.32 1014.03 1014.18 1014.10 1014.95 1016.71 1017.53 1018.18 1018.45 1018.40 1018.37 1018.53 1018.52 1018.65 1018.87 1019.20 1019.42 1019.53 1019.71 1020.06 1020.64
1008.48 1009.13 1009.72 1010.22 1010.75 1011.39 1012.05 1012.71 1013.31 1013.61 1013.95 1014.42 1015.20 1015.37 1015.50 1015.63 1015.87 1016.48 1017.20 1017.22 1017.06 1016.39 1015.98 1015.38 1015.07 1014.63 1015.07 1014.90 1015.11 1015.36 1015.34 1014.34 1013.93 1013.37 1013.66 1013.97 1014.94 1017.02 1018.07 1018.86 1019.31 1019.47 1019.48 1019.20 1019.01 1019.12 1019.23 1019.48 1019.85 1020.24 1020.59 1020.91 1021.34 1021.92
1008.25 1008.90 1009.50 1010.08 1010.68 1011.29 1011.95 1012.54 1013.11 1013.36 1014.05 1014.37 1014.60 1015.00 1015.47 1015.83 1015.66 1015.39 1016.01 1015.98 1015.92 1015.36 1014.74 1014.56 1014.40 1014.10 1014.55 1014.20 1014.28 1014.60 1014.35 1014.01 1013.38 1012.76 1013.48 1013.99 1015.42 1017.61 1019.03 1019.83 1020.27 1020.42 1020.33 1020.25 1020.27 1020.29 1020.08 1020.31 1020.79 1021.33 1021.88 1022.42 1022.92 1023.42
1007.97 1008.65 1009.29 1009.96 1010.65 1011.23 1011.76 1012.28 1012.86 1013.64 1013.77 1013.66 1014.06 1014.98 1015.57 1015.66 1015.37 1015.19 1015.12 1015.14 1014.80 1013.69 1013.60 1013.84 1013.98 1014.05 1013.95 1013.89 1013.90 1014.20 1013.67 1013.78 1012.88 1013.12 1013.65 1014.37 1017.21 1018.79 1019.77 1020.57 1021.01 1021.24 1021.34 1021.43 1021.45 1021.56 1021.72 1021.92 1022.27 1022.77 1023.32 1023.93 1024.57 1025.18
1007.73 1008.43 1009.08 1009.82 1010.48 1010.99 1011.44 1011.91 1012.44 1012.72 1013.16 1013.80 1014.16 1014.97 1015.03 1015.18 1014.90 1014.33 1013.97 1013.77 1013.33 1013.10 1013.21 1013.51 1013.92 1013.87 1013.95 1014.05 1014.02 1013.83 1013.51 1012.63 1013.00 1013.25 1013.88 1016.12 1018.18 1019.61 1020.59 1021.28 1021.84 1022.23 1022.48 1022.75 1023.00 1023.17 1023.33 1023.60 1024.00 1024.34 1024.92 1025.52 1025.94 1026.45
1007.49 1008.19 1008.89 1009.58 1010.18 1010.68 1011.22 1011.98 1012.27 1012.45 1012.71 1013.07 1013.37 1014.24 1014.28 1014.23 1013.68 1013.12 1012.90 1012.85 1013.09 1013.24 1013.21 1013.41 1013.53 1013.56 1013.76 1013.90 1013.45 1012.91 1013.04 1013.00 1013.16 1013.86 1015.10 1017.33 1019.11 1020.53 1021.45 1022.17 1022.65 1023.30 1023.72 1023.85 1024.12 1024.45 1024.74 1025.03 1025.40 1025.84 1026.16 1026.55 1026.85 1027.23
1007.34 1008.00 1008.65 1009.31 1009.88 1010.49 1011.30 1011.77 1012.31 1012.83 1012.89 1012.64 1012.80 1013.21 1013.63 1013.51 1013.66 1013.66 1013.68 1013.58 1013.70 1013.61 1013.42 1013.42 1013.47 1013.44 1013.39 1013.41 1013.35 1013.29 1013.39 1013.44 1014.18 1015.18 1016.96 1018.78 1020.43 1021.70 1022.56 1023.18 1023.72 1024.20 1024.60 1024.84 1025.17 1025.46 1025.79 1026.06 1026.33 1026.70 1027.08 1027.37 1027.75 1028.08
1007.12 1007.90 1008.33 1008.84 1009.56 1010.33 1011.30 1012.09 1013.00 1012.97 1013.00 1013.24 1013.73 1014.03 1014.14 1013.95 1014.06 1014.06 1014.06 1014.11 1014.21 1013.86 1013.56 1013.32 1013.19 1013.27 1013.43 1013.46 1013.62 1013.79 1014.21 1014.62 1015.98 1017.53 1019.00 1020.51 1021.72 1022.64 1023.36 1023.97 1024.51 1024.91 1025.19 1025.48 1025.80 1026.05 1026.33 1026.60 1026.80 1027.21 1027.61 1027.89 1028.15 1028.38
1006.93 1007.14 1007.64 1008.57 1009.43 1010.15 1011.07 1012.13 1012.87 1013.17 1013.62 1014.08 1014.51 1014.83 1014.65 1014.54 1014.34 1014.64 1014.74 1014.71 1014.68 1014.10 1013.30 1013.16 1013.04 1013.43 1013.91 1013.96 1014.36 1015.08 1015.60 1016.85 1018.10 1019.32 1020.40 1021.45 1022.53 1023.54 1024.31 1024.79 1025.18 1025.36 1025.51 1025.73 1026.01 1026.28 1026.60 1026.98 1027.26 1027.31 1027.51 1027.91 1028.15 1028.50
1006.25 1006.28 1007.02 1008.11 1009.21 1010.73 1012.04 1012.42 1012.77 1013.46 1014.26 1014.79 1014.78 1015.25 1015.42 1015.54 1015.28 1015.34 1015.33 1015.22 1014.80 1013.95 1013.66 1013.44 1013.54 1013.87 1014.10 1014.54 1015.11 1016.46 1017.69 1018.97 1019.65 1020.46 1021.48 1022.53 1023.40 1024.11 1024.48 1024.82 1025.24 1025.43 1025.64 1025.91 1026.19 1026.51 1026.72 1026.77 1026.70 1026.79 1027.22 1027.62 1027.96 1028.29
1005.35 1006.33 1007.34 1008.36 1008.92 1009.91 1011.74 1013.06 1013.12 1013.78 1014.78 1015.18 1015.63 1015.84 1015.88 1015.97 1016.12 1016.09 1015.77 1015.38 1014.95 1014.50 1014.19 1014.15 1014.28 1014.54 1015.09 1016.00 1016.57 1017.62 1018.63 1019.28 1020.27 1021.22 1022.35 1023.18 1023.75 1024.30 1024.65 1025.01 1025.30 1025.43 1025.69 1025.86 1025.97 1026.00 1026.33 1026.69 1026.66 1026.67 1026.91 1027.26 1027.20 1027.62
1006.78 1007.64 1008.23 1008.73 1008.57 1009.81 1011.75 1013.24 1013.51 1013.88 1014.53 1015.20 1015.60 1015.80 1016.01 1016.13 1016.38 1016.29 1015.95 1015.61 1015.30 1015.03 1014.92 1015.15 1015.64 1016.37 1016.80 1017.51 1017.95 1018.35 1019.14 1019.79 1020.50 1021.33 1022.37 1023.21 1023.89 1024.34 1024.53 1024.60 1024.77 1025.21 1025.47 1025.85 1026.12 1026.38 1026.48 1026.69 1027.05 1027.22 1027.32 1027.40 1027.34 1027.47
1007.90 1008.34 1008.47 1008.67 1009.90 1010.79 1012.24 1013.22 1013.78 1014.28 1014.94 1015.26 1015.84 1015.85 1016.12 1016.36 1016.33 1016.30 1016.21 1016.24 1015.88 1016.04 1016.24 1016.94 1017.31 1018.13 1018.80 1018.98 1019.02 1019.39 1019.91 1020.27 1020.60 1021.04 1021.82 1022.82 1023.59 1023.86 1024.34 1024.67 1025.01 1025.14 1025.32 1025.65 1025.96 1026.62 1026.80 1026.92 1027.38 1027.68 1027.81 1028.05 1028.20 1028.19
1008.35 1008.55 1009.08 1009.68 1010.70 1012.06 1013.05 1013.71 1013.78 1014.39 1014.76 1015.09 1015.56 1015.81 1016.04 1016.24 1016.41 1016.66 1016.88 1016.57 1016.86 1017.39 1017.72 1017.84 1018.31 1018.73 1019.29 1019.65 1019.93 1020.15 1020.78 1021.15 1021.51 1021.95 1022.51 1023.17 1023.50 1023.90 1024.30 1024.71 1025.03 1025.30 1025.65 1025.98 1026.26 1026.67 1027.08 1027.62 1028.01 1028.21 1028.27 1028.50 1028.68 1028.46
1008.51 1008.94 1010.05 1010.83 1011.77 1012.63 1014.15 1014.15 1013.98 1014.34 1014.66 1015.16 1015.58 1015.74 1016.10 1016.41 1016.79 1017.18 1017.06 1017.39 1017.80 1018.50 1018.57 1018.66 1019.13 1019.31 1019.77 1020.40 1020.78 1021.13 1021.36 1021.39 1021.72 1022.34 1022.97 1023.38 1023.93 1024.39 1024.74 1025.16 1025.44 1025.70 1026.01 1026.50 1026.86 1027.17 1027.56 1028.22 1028.67 1028.58 1028.72 1028.78 1028.63 1028.61
1009.46 1010.60 1011.45 1011.93 1012.47 1013.66 1014.16 1014.00 1014.01 1014.30 1014.76 1015.10 1015.33 1015.73 1016.24 1016.45 1017.07 1017.02 1016.99 1017.46 1018.21 1018.68 1018.91 1019.35 1019.47 1019.91 1020.48 1020.87 1021.03 1021.63 1022.02 1022.09 1022.62 1023.24 1023.66 1023.89 1024.35 1024.97 1025.29 1025.73 1026.12 1026.44 1026.62 1026.94 1027.29 1027.66 1028.06 1028.37 1028.77 1028.73 1028.90 1028.85 1028.86 1028.93
1010.93 1012.95 1012.97 1013.31 1013.60 1013.83 1014.06 1014.18 1014.24 1014.40 1014.65 1015.17 1015.48 1015.84 1016.25 1016.73 1016.77 1016.91 1016.91 1017.64 1018.34 1018.70 1019.16 1019.47 1019.60 1019.81 1020.26 1021.14 1021.88 1022.54 1022.93 1022.82 1023.06 1023.71 1024.54 1024.57 1025.01 1025.56 1026.00 1026.44 1026.86 1027.26 1027.57 1027.54 1027.72 1027.94 1028.25 1028.70 1028.86 1028.89 1028.94 1029.00 1029.01 1029.02
1012.27 1013.66 1013.80 1013.57 1013.91 1013.88 1014.10 1014.27 1014.45 1014.66 1015.01 1015.35 1015.67 1016.22 1016.51 1016.66 1016.89 1016.74 1017.23 1017.84 1018.40 1018.91 1019.27 1019.56 1019.83 1020.38 1021.04 1021.57 1022.22 1022.91 1023.51 1023.74 1023.94 1024.42 1025.26 1025.43 1025.57 1025.69 1026.09 1026.59 1027.04 1027.60 1028.15 1028.19 1028.17 1028.20 1028.42 1028.78 1028.93 1029.08 1029.04 1029.10 1029.48 1029.49
1013.34 1014.18 1014.54 1014.98 1014.66 1014.59 1014.93 1015.12 1015.22 1015.16 1015.36 1015.46 1015.82 1016.50 1016.81 1016.95 1016.93 1017.84 1018.73 1019.28 1019.06 1019.47 1019.69 1020.10 1020.29 1020.66 1021.50 1022.62 1023.56 1024.18 1024.59 1024.87 1024.93 1025.48 1026.16 1026.58 1026.88 1027.05 1027.04 1027.24 1027.67 1028.12 1028.64 1028.84 1028.91 1028.84 1028.81 1029.01 1029.17 1029.33 1029.37 1029.34 1029.38 1029.57
1014.42 1014.88 1015.16 1015.90 1015.84 1016.04 1015.86 1016.01 1016.07 1016.08 1016.31 1016.46 1016.49 1016.92 1017.25 1017.83 1018.41 1019.39 1019.78 1020.28 1020.27 1020.42 1020.99 1021.52 1021.69 1022.02 1022.77 1023.66 1024.41 1024.98 1025.66 1026.20 1026.51 1026.66 1027.03 1027.49 1027.89 1028.17 1028.42 1028.70 1029.14 1029.62 1029.39 1029.58 1029.66 1029.62 1029.52 1029.52 1029.63 1029.76 1029.79 1029.69 1029.65 1029.74
1015.38 1015.92 1016.00 1016.73 1016.88 1017.07 1017.30 1017.30 1017.25 1017.61 1017.99 1017.51 1017.43 1018.16 1018.87 1019.77 1020.54 1020.65 1020.77 1020.85 1021.02 1021.08 1021.51 1022.30 1023.36 1023.88 1024.46 1025.14 1025.50 1025.69 1026.05 1026.18 1026.34 1026.67 1026.92 1027.25 1027.79 1028.49 1029.01 1029.23 1029.51 1029.56 1029.57 1029.98 1030.37 1030.16 1030.09 1030.05 1030.21 1030.51 1030.44 1030.15 1030.05 1030.11
1016.42 1016.72 1016.86 1017.48 1017.67 1017.97 1018.47 1018.79 1018.72 1019.05 1019.09 1019.06 1019.07 1019.63 1020.23 1020.85 1021.42 1021.68 1021.44 1021.47 1021.41 1021.63 1022.20 1022.82 1023.62 1024.02 1024.67 1025.18 1026.06 1026.79 1027.21 1027.27 1027.22 1027.08 1027.03 1027.32 1027.72 1028.58 1029.16 1029.49 1029.72 1029.94 1029.98 1029.98 1030.04 1030.03 1030.29 1030.25 1030.37 1030.69 1030.62 1030.20 1029.88 1029.81
1017.11 1017.22 1017.62 1018.04 1018.49 1019.05 1019.38 1019.78 1019.86 1019.78 1019.74 1019.79 1020.06 1019.94 1020.53 1021.16 1021.82 1022.34 1022.40 1022.42 1022.56 1022.88 1023.16 1023.71 1024.32 1024.74 1025.08 1025.55 1025.96 1026.58 1027.25 1027.98 1028.29 1028.27 1028.18 1028.36 1028.74 1029.20 1029.68 1030.03 1030.24 1030.31 1030.31 1030.32 1030.35 1030.31 1030.29 1030.21 1030.22 1030.34 1030.28 1030.21 1030.19 1030.19
1017.54 1017.71 1017.88 1018.33 1018.99 1019.74 1019.93 1019.62 1019.56 1019.54 1019.74 1019.82 1020.30 1020.83 1021.29 1021.34 1021.68 1022.54 1023.40 1023.22 1023.18 1023.31 1023.88 1024.20 1024.67 1025.47 1026.01 1026.56 1026.95 1027.34 1027.59 1028.29 1028.73 1028.94 1028.95 1029.06 1029.45 1029.94 1030.27 1030.60 1030.92 1030.75 1030.66 1030.70 1030.72 1030.71 1030.72 1030.60 1030.49 1030.45 1030.39 1030.32 1030.35 1030.35
1018.12 1018.16 1018.28 1018.40 1018.96 1019.24 1019.64 1019.49 1019.40 1019.60 1019.69 1019.89 1020.34 1020.86 1021.24 1021.33 1022.05 1023.11 1023.99 1024.08 1023.81 1023.76 1024.44 1025.15 1025.79 1026.53 1027.07 1027.36 1027.75 1028.27 1028.71 1029.31 1029.68 1029.90 1030.22 1030.34 1030.52 1030.61 1030.71 1030.87 1030.94 1030.98 1030.99 1030.98 1030.97 1030.98 1030.87 1030.77 1030.65 1030.63 1030.59 1030.64 1030.58 1030.50
Thickness
5330 5331 5333 5334 5335 5338 5339 5341 5342 5344 5344 5344 5345 5347 5347 5347 5345 5344 5344 5337 5339 5333 5343 5338 5338 5338 5339 5337 5341 5346 5351 5355 5362 5371 5377 5376 5404 5425 5437 5451 5455 5457 5458 5460 5468 5465 5473 5463 5481 5485 5454 5455 5457 5451
5323 5324 5327 5328 5329 5332 5334 5335 5337 5338 5339 5340 5341 5342 5342 5342 5341 5338 5340 5332 5327 5325 5337 5331 5334 5334 5336 5337 5335 5338 5340 5339 5350 5361 5370 5374 5396 5416 5425 5440 5446 5440 5438 5451 5466 5461 5444 5435 5437 5426 5435 5439 5438 5437
5316 5319 5320 5322 5323 5325 5328 5329 5331 5333 5334 5335 5336 5337 5338 5338 5336 5333 5335 5328 5320 5318 5331 5335 5343 5342 5337 5335 5332 5330 5346 5346 5340 5340 5347 5365 5385 5398 5408 5417 5430 5429 5421 5430 5431 5413 5413 5412 5411 5409 5411 5413 5413 5414
5307 5312 5313 5315 5317 5319 5322 5324 5326 5328 5329 5331 5332 5333 5333 5333 5332 5328 5327 5323 5321 5320 5329 5345 5339 5339 5341 5338 5336 5334 5340 5343 5345 5349 5351 5361 5380 5394 5397 5397 5405 5395 5412 5405 5408 5400 5398 5391 5395 5401 5399 5397 5396 5397
5300 5304 5307 5308 5311 5314 5316 5319 5321 5323 5325 5326 5328 5328 5329 5329 5328 5326 5323 5322 5322 5327 5335 5340 5338 5341 5341 5341 5338 5334 5332 5335 5343 5343 5353 5368 5387 5388 5391 5394 5387 5380 5379 5396 5410 5390 5390 5381 5382 5386 5388 5386 5386 5388
5294 5297 5299 5302 5304 5308 5310 5313 5317 5319 5320 5322 5324 5325 5325 5326 5324 5323 5322 5323 5322 5319 5318 5327 5338 5336 5338 5337 5337 5336 5334 5335 5338 5347 5357 5370 5384 5383 5387 5396 5367 5365 5367 5374 5381 5375 5374 5370 5371 5374 5376 5372 5371 5373
5287 5290 5293 5295 5298 5301 5304 5308 5312 5313 5316 5318 5320 5322 5323 5323 5321 5320 5330 5330 5325 5314 5313 5319 5331 5335 5332 5332 5333 5333 5333 5339 5347 5352 5363 5375 5383 5383 5383 5395 5362 5357 5358 5364 5367 5371 5371 5371 5366 5365 5367 5367 5367 5367
5282 5286 5290 5293 5296 5297 5299 5304 5308 5310 5312 5315 5318 5320 5321 5320 5319 5320 5322 5320 5317 5311 5311 5320 5328 5328 5327 5331 5333 5334 5340 5342 5353 5363 5367 5375 5383 5385 5385 5353 5350 5352 5355 5357 5358 5363 5363 5360 5361 5360 5362 5363 5362 5361
5280 5284 5289 5292 5295 5296 5298 5301 5304 5308 5310 5314 5316 5318 5317 5317 5319 5321 5316 5313 5311 5316 5322 5321 5334 5337 5324 5333 5335 5333 5342 5345 5361 5361 5369 5375 5382 5382 5352 5347 5342 5342 5348 5354 5355 5358 5359 5357 5355 5355 5356 5355 5353 5349
5278 5283 5287 5291 5294 5296 5297 5299 5301 5307 5311 5312 5313 5316 5320 5319 5317 5314 5309 5310 5312 5319 5323 5327 5331 5335 5331 5333 5334 5340 5343 5363 5366 5377 5376 5377 5376 5341 5336 5335 5335 5338 5340 5347 5354 5353 5353 5351 5348 5345 5343 5342 5338 5333
5275 5280 5284 5289 5292 5293 5295 5298 5300 5305 5308 5311 5315 5317 5314 5312 5318 5323 5314 5319 5319 5324 5333 5333 5337 5341 5339 5343 5348 5354 5357 5366 5371 5388 5380 5386 5376 5341 5331 5328 5329 5331 5334 5336 5337 5338 5342 5341 5336 5331 5326 5322 5319 5315
5274 5279 5283 5287 5289 5292 5295 5299 5300 5304 5309 5316 5318 5312 5310 5312 5317 5319 5321 5324 5327 5342 5344 5339 5339 5344 5349 5355 5358 5357 5367 5365 5379 5379 5382 5393 5339 5331 5327 5323 5323 5324 5324 5324 5325 5324 5322 5321 5318 5313 5308 5302 5296 5291
5274 5278 5283 5286 5289 5293 5297 5301 5304 5310 5312 5312 5313 5310 5315 5316 5317 5327 5327 5338 5345 5351 5350 5345 5344 5348 5352 5353 5355 5361 5364 5385 5375 5384 5392 5358 5334 5327 5323 5320 5315 5312 5310 5308 5304 5303 5302 5299 5295 5292 5285 5279 5276 5271
5275 5280 5284 5288 5292 5296 5299 5301 5307 5311 5315 5319 5322 5312 5321 5321 5332 5343 5352 5356 5351 5348 5351 5349 5353 5356 5354 5357 5363 5375 5373 5376 5388 5390 5383 5344 5329 5319 5314 5309 5307 5299 5294 5293 5290 5286 5282 5278 5274 5271 5268 5264 5261 5257
5280 5285 5289 5292 5296 5299 5301 5304 5307 5309 5313 5325 5331 5335 5323 5330 5326 5331 5335 5344 5342 5343 5350 5354 5356 5360 5362 5363 5367 5373 5377 5389 5380 5382 5349 5330 5316 5305 5299 5295 5290 5285 5282 5281 5278 5274 5270 5266 5263 5259 5254 5250 5245 5241
5288 5290 5296 5299 5301 5303 5304 5304 5302 5309 5313 5317 5314 5316 5315 5327 5329 5334 5338 5341 5340 5344 5352 5358 5362 5364 5362 5367 5369 5374 5379 5387 5360 5335 5321 5309 5300 5294 5290 5285 5281 5279 5277 5273 5268 5265 5260 5255 5252 5246 5240 5236 5231 5227
5296 5302 5306 5306 5307 5308 5308 5307 5307 5306 5306 5308 5306 5301 5312 5320 5333 5329 5331 5336 5336 5348 5365 5365 5370 5363 5359 5365 5365 5353 5366 5343 5323 5314 5311 5304 5294 5285 5279 5276 5272 5271 5268 5264 5260 5255 5249 5243 5238 5235 5232 5225 5220 5214
5309 5316 5317 5315 5313 5307 5303 5305 5308 5306 5301 5301 5311 5305 5306 5308 5321 5324 5326 5330 5339 5354 5357 5361 5361 5361 5368 5374 5371 5338 5320 5307 5310 5307 5300 5291 5284 5278 5277 5273 5268 5265 5261 5256 5251 5245 5240 5237 5235 5231 5223 5216 5209 5203
5326 5324 5321 5319 5320 5320 5308 5300 5307 5304 5299 5299 5298 5300 5305 5308 5311 5315 5323 5331 5339 5346 5352 5354 5359 5369 5360 5339 5335 5321 5313 5314 5306 5300 5290 5283 5279 5273 5270 5266 5262 5259 5254 5249 5245 5242 5234 5226 5223 5219 5213 5206 5203 5195
5320 5318 5318 5319 5325 5321 5308 5300 5305 5308 5309 5305 5302 5306 5309 5312 5311 5315 5324 5331 5337 5343 5347 5351 5348 5334 5332 5323 5321 5321 5315 5312 5305 5297 5288 5281 5275 5270 5268 5266 5263 5254 5248 5240 5234 5226 5222 5215 5207 5201 5195 5190 5186 5180
5317 5317 5320 5323 5317 5315 5308 5304 5303 5305 5302 5303 5300 5307 5308 5309 5315 5320 5324 5324 5334 5330 5334 5320 5320 5311 5306 5308 5314 5312 5308 5307 5304 5301 5293 5282 5275 5273 5265 5259 5252 5246 5241 5233 5226 5214 5208 5203 5193 5184 5178 5171 5163 5157
5319 5320 5321 5320 5315 5308 5306 5305 5309 5307 5309 5310 5309 5311 5313 5317 5317 5316 5315 5323 5321 5316 5315 5316 5312 5310 5307 5306 5305 5305 5298 5295 5291 5287 5282 5275 5271 5265 5258 5250 5243 5236 5229 5220 5213 5205 5195 5184 5176 5168 5161 5153 5143 5138
5322 5324 5318 5316 5310 5309 5298 5305 5310 5312 5311 5311 5312 5313 5312 5313 5310 5309 5315 5312 5310 5303 5307 5310 5306 5308 5304 5298 5296 5293 5292 5292 5290 5283 5275 5270 5261 5254 5247 5239 5232 5224 5217 5206 5197 5189 5179 5163 5157 5152 5143 5135 5127 5122
5321 5314 5312 5312 5314 5302 5303 5308 5316 5315 5314 5314 5317 5312 5309 5313 5307 5314 5322 5316 5307 5305 5306 5302 5304 5300 5297 5294 5295 5289 5284 5283 5276 5268 5263 5259 5251 5240 5234 5225 5217 5208 5201 5192 5182 5172 5162 5153 5138 5135 5125 5118 5111 5105
5321 5301 5307 5304 5305 5308 5308 5311 5313 5316 5314 5309 5311 5311 5310 5308 5316 5319 5325 5314 5306 5306 5303 5302 5303 5303 5301 5291 5284 5277 5272 5274 5270 5261 5249 5246 5238 5228 5219 5210 5201 5191 5182 5175 5167 5159 5149 5136 5127 5119 5111 5104 5099 5094
5312 5294 5308 5313 5308 5315 5312 5312 5311 5312 5312 5309 5312 5308 5309 5316 5316 5331 5321 5311 5307 5303 5301 5300 5299 5294 5290 5287 5280 5273 5265 5260 5257 5251 5237 5232 5226 5221 5213 5203 5193 5181 5167 5159 5153 5145 5135 5123 5113 5105 5100 5093 5081 5078
5303 5296 5294 5288 5299 5304 5304 5301 5304 5313 5312 5314 5314 5307 5315 5324 5332 5312 5298 5294 5302 5298 5298 5295 5295 5293 5285 5273 5263 5256 5250 5245 5242 5235 5222 5214 5206 5199 5195 5188 5179 5167 5153 5144 5136 5127 5119 5109 5100 5093 5087 5082 5075 5069
5287 5286 5295 5281 5282 5283 5289 5291 5299 5306 5303 5301 5311 5313 5320 5321 5316 5292 5290 5284 5287 5287 5282 5278 5279 5276 5270 5260 5251 5243 5235 5228 5221 5215 5207 5198 5189 5181 5172 5164 5154 5145 5137 5128 5120 5110 5102 5094 5088 5081 5075 5070 5064 5058
5276 5271 5279 5264 5269 5270 5271 5282 5286 5283 5281 5293 5306 5297 5289 5279 5274 5277 5279 5279 5279 5280 5276 5269 5259 5254 5248 5241 5237 5233 5227 5223 5219 5210 5205 5198 5185 5171 5159 5151 5142 5132 5124 5115 5103 5095 5087 5080 5074 5068 5062 5057 5051 5045
5265 5263 5265 5257 5264 5272 5265 5264 5270 5267 5270 5274 5278 5275 5273 5269 5267 5268 5271 5272 5275 5275 5269 5262 5253 5251 5244 5239 5227 5217 5210 5205 5201 5201 5197 5189 5178 5161 5149 5140 5130 5120 5111 5102 5094 5085 5075 5069 5063 5057 5052 5048 5044 5039
5256 5261 5259 5259 5258 5257 5257 5253 5255 5260 5264 5267 5264 5275 5272 5267 5262 5258 5260 5260 5260 5256 5254 5249 5243 5240 5235 5229 5224 5215 5206 5193 5184 5179 5174 5166 5157 5147 5136 5126 5116 5107 5097 5088 5080 5073 5067 5060 5055 5048 5044 5038 5032 5026
5256 5257 5257 5256 5254 5249 5250 5261 5264 5267 5266 5270 5265 5259 5258 5267 5268 5258 5248 5251 5252 5251 5245 5242 5237 5228 5220 5212 5205 5198 5192 5182 5174 5166 5159 5152 5143 5132 5122 5112 5102 5093 5084 5076 5068 5061 5054 5048 5043 5038 5034 5029 5022 5017
5243 5247 5250 5256 5254 5255 5253 5260 5263 5262 5265 5268 5264 5260 5259 5269 5268 5250 5239 5238 5243 5243 5237 5229 5221 5212 5205 5199 5192 5183 5175 5167 5159 5151 5143 5136 5127 5118 5109 5100 5090 5081 5072 5065 5058 5050 5044 5039 5034 5028 5023 5016 5011 5006